Location: Bath
(51.4030°N, 2.3976°W)
Time: 18:17:25
(UTC+01:00)

ISS - Visible Passes

Search period start: 21 September 2018 00:00
Search period end: 01 October 2018 00:00
Orbit: 403 x 408 km, 51.6° (Epoch: 21 September)

Date Brightness Start Highest point End Pass type
(mag) Time Alt. Az. Time Alt. Az. Time Alt. Az.
22 Sep -1.6 21:00:42 10° SSW 21:01:34 15° SSW 21:01:34 15° SSW visible
23 Sep -2.0 20:09:38 10° S 20:11:46 16° SE 20:12:20 16° SE visible
23 Sep -1.1 21:44:33 10° WSW 21:45:03 14° WSW 21:45:03 14° WSW visible
24 Sep -3.1 20:52:52 10° SW 20:55:36 39° S 20:55:36 39° S visible
25 Sep -2.7 20:01:21 10° SSW 20:04:14 28° SSE 20:06:01 18° E visible
25 Sep -1.8 21:37:11 10° WSW 21:38:42 25° WSW 21:38:42 25° WSW visible
26 Sep -3.9 20:45:21 10° WSW 20:48:37 65° SSE 20:48:59 58° ESE visible
27 Sep -3.4 19:53:34 10° SW 19:56:46 47° SSE 19:59:10 16° E visible
27 Sep -2.2 21:29:53 10° W 21:31:50 33° W 21:31:50 33° W visible
28 Sep -3.9 20:37:57 10° W 20:41:15 87° S 20:41:57 53° E visible
28 Sep -0.4 22:14:29 10° W 22:14:37 11° W 22:14:37 11° W visible
29 Sep -3.8 19:46:02 10° WSW 19:49:19 72° SSE 19:52:00 15° E visible
29 Sep -2.4 21:22:32 10° W 21:24:40 37° W 21:24:40 37° W visible
30 Sep -3.9 20:30:34 10° W 20:33:53 84° N 20:34:41 48° E visible
30 Sep -0.5 22:07:06 10° W 22:07:21 12° W 22:07:21 12° W visible
